Regional Weather Roundup
Issued by NWS

Home | Current Version | Previous Version | Text Only | Print | Product List | Glossary Off
Versions: 1 2 3 4 5 6 7 8 9 10 11 12 13 14 15 16 17 18 19 20 21 22 23 24 25 26 27 28 29 30 31 32 33 34 35 36 37 38 39 40 41 42 43 44 45 46 47 48 49 50

000
ASUS45 KABQ 011010
RWRNM
WEATHER ROUNDUP FOR NEW MEXICO
NATIONAL WEATHER SERVICE ALBUQUERQUE NM
300 AM MST SUN MAR 01 2015

NOTE: "FAIR" MEANS FEW OR NO CLOUDS BELOW 12,000 FEET AGL WITH NO
       SIGNIFICANT WEATHER OR OBSTRUCTIONS TO VISION.

      THIS PRODUCT IS RELEASED AS TWO VERSIONS.  ONE VERSION NEAR
      THE TOP OF THE HOUR CONTAINING PRELIMINARY DATA FROM ALBUQUERQUE
      AND OTHER STATIONS.  A FINAL VERSION WITH ADDITIONAL DATA IS
      ISSUED ABOUT 10 MINUTES AFTER THE HOUR.

NMZ501-503-504-510>518-011100-
NORTHWEST PLATEAU/NORTHCENTRAL MOUNTAINS

CITY           SKY/WX    TMP DP  RH WIND       PRES   REMARKS
FARMINGTON     CLOUDY    33  31  92 E8        30.00S WCI  26
LOS ALAMOS     CLOUDY    33  33 100 CALM      30.04S
SANTA FE       CLOUDY    34  32  92 CALM      30.02F
TAOS           CLOUDY    32  28  86 CALM      30.04S
ANGEL FIRE     LGT SNOW  32  29  88 W14G21      N/A  WCI  22

$$
NMZ402-403-502-505>509-011100-
WESTCENTRAL MOUNTAINS/SOUTHWEST MOUNTAINS

CITY           SKY/WX    TMP DP  RH WIND       PRES   REMARKS
GALLUP         LGT RAIN  37  35  92 CALM      30.01S
GRANTS         DRIZZLE   33  33  99 CALM      30.04S
SILVER CITY    CLEAR     39  34  81 NW3       30.08S

$$
NMZ407-409-411-412-011100-
SOUTHERN DESERTS

CITY           SKY/WX    TMP DP  RH WIND       PRES   REMARKS
LORDSBURG      FAIR      43  34  70 NE5       30.02F
DEMING         CLEAR     46  36  68 W8        30.04S
LAS CRUCES     CLEAR     45  34  64 W7        30.05S
HOLLOMAN AFB   CLEAR     47  31  54 S8        30.02S
ALAMOGORDO     CLEAR     50  32  50 MISG      30.04R
T OR C         CLEAR     49  38  65 S9        30.00S

$$
NMZ519>523-011100-
CENTRAL VALLEYS/CENTRAL HIGHLANDS

CITY           SKY/WX    TMP DP  RH WIND       PRES   REMARKS
ALBUQUERQUE    CLOUDY    34  31  88 CALM      30.04S
DOUBLE EAGLE   MOCLDY    31  29  92 NW5       30.04S WCI  26
MORIARTY ARPT  MIX PCPN  33  30  90 CALM      30.03F
CLINES CORNERS MOCLDY    37  31  78 W14       30.01S WCI  28
BELEN          PTSUNNY   31  31  99 CALM      30.03F
SOCORRO          N/A     35  31  86 N8        30.04S WCI  28

$$
NMZ524>526-539-540-011100-
SOUTHCENTRAL MOUNTAINS

CITY           SKY/WX    TMP DP  RH WIND       PRES   REMARKS
RUIDOSO        CLEAR     45  32  61 W7G17     30.08S

$$
NMZ527>531-011100-
NORTHEAST HIGHLANDS/NORTHEAST PLAINS

CITY           SKY/WX    TMP DP  RH WIND       PRES   REMARKS
LAS VEGAS      PTCLDY    30  30 100 SW20      29.98F WCI  17
RATON          FOG       24  23  96 CALM      30.01R VSB 1
CLAYTON        CLOUDY    23  21  92 SW5       30.05S WCI  17

$$
NMZ532>537-011100-
EASTCENTRAL PLAINS

CITY           SKY/WX    TMP DP  RH WIND       PRES   REMARKS
TUCUMCARI      CLOUDY    27  24  89 NW6       30.09S WCI  20
CANNON AFB     FOG       27  27  98 SW8       30.09F VSB 1/4 WCI  19
CLOVIS AIRPORT CLOUDY    27  25  93 SW12      30.09F WCI  16

$$
NMZ028-029-538-011100-
SOUTHEAST PLAINS

CITY           SKY/WX    TMP DP  RH WIND       PRES   REMARKS
ROSWELL        CLOUDY    30  28  92 S9        30.12F FOG     WCI  22
ARTESIA        CLOUDY    30  30 100 S10       30.13S WCI  21
CARLSBAD       CLOUDY    33  29  85 S12       30.12F WCI  24
HOBBS          FOG       28  28 100 CALM      30.14S VSB 1/4


$$



USA.gov is the U.S. government's official web portal to all federal, state and local government web resources and services.